�N����,����,�~����,�C��,���x,�C��,����,���ϕ���,�ő�u�ԕ���,�ő厞����,���˗�,�I�_���x,�n�����x,�ő啗���N��,DTYPE
"20/11/07","00:10",0.0,12.7,93.9,1017.3,322.9,0.7,1.4,332.2,0.00,11.8,14.7,"00:09:18",1
"20/11/07","00:20",0.0,12.6,93.9,1017.1,292.8,0.6,1.2,327.5,0.00,11.7,14.6,"00:10:40",1
"20/11/07","00:30",0.0,12.5,94.1,1016.8,295.0,0.7,1.3,321.2,0.00,11.6,14.4,"00:29:40",1
"20/11/07","00:40",0.0,12.5,94.1,1016.8,319.0,1.1,1.4,327.2,0.00,11.6,14.4,"00:30:48",1
"20/11/07","00:50",0.0,12.4,94.2,1016.8,321.7,1.1,1.6,328.6,0.00,11.5,14.5,"00:45:38",1
"20/11/07","01:00",0.0,12.4,94.4,1016.4,327.1,1.2,1.6,320.5,0.00,11.6,14.6,"00:55:22",1
"20/11/07","01:10",0.0,12.3,94.5,1016.4,279.2,1.0,1.8,320.5,0.00,11.5,14.5,"01:00:26",1
"20/11/07","01:20",0.0,12.3,94.6,1016.4,304.3,1.1,1.8,322.3,0.00,11.5,14.5,"01:17:58",1
"20/11/07","01:30",0.0,12.4,94.6,1016.4,305.2,0.8,1.7,320.7,0.00,11.6,14.5,"01:24:36",1
"20/11/07","01:40",0.0,12.5,94.8,1016.4,311.3,0.8,1.3,316.6,0.00,11.7,14.7,"01:33:56",1
"20/11/07","01:50",0.0,12.7,94.8,1016.4,324.2,1.1,1.4,322.6,0.00,11.9,14.5,"01:42:34",1
"20/11/07","02:00",0.0,12.8,94.8,1016.1,270.2,0.5,0.9,303.3,0.00,12.0,14.7,"01:50:08",1
"20/11/07","02:10",0.0,12.9,94.9,1016.1,308.1,0.8,1.6,321.6,0.00,12.1,14.7,"02:07:36",1
"20/11/07","02:20",0.0,12.9,94.9,1015.9,315.3,0.5,1.3,347.8,0.00,12.1,14.7,"02:10:48",1
"20/11/07","02:30",0.0,12.9,94.9,1016.1,271.0,0.5,0.9,278.3,0.00,12.1,14.5,"02:20:08",1
"20/11/07","02:40",0.0,12.9,95.0,1016.1,310.5,1.0,1.2,325.3,0.00,12.2,14.3,"02:31:44",1
"20/11/07","02:50",0.0,13.0,95.0,1015.6,322.9,1.2,1.7,325.7,0.00,12.3,14.7,"02:46:08",1
"20/11/07","03:00",0.0,12.9,95.0,1015.6,305.0,1.1,1.6,338.2,0.00,12.2,14.8,"02:53:20",1
"20/11/07","03:10",0.0,12.9,95.1,1016.1,284.7,0.5,1.0,312.7,0.00,12.2,14.6,"03:00:32",1
"20/11/07","03:20",0.0,12.9,95.2,1015.6,320.2,1.0,1.9,317.9,0.00,12.2,14.6,"03:10:02",1
"20/11/07","03:30",0.0,13.1,95.2,1015.6,288.2,1.0,1.7,324.1,0.00,12.4,14.5,"03:22:08",1
"20/11/07","03:40",0.0,13.1,95.2,1015.6,297.2,0.8,1.3,316.7,0.00,12.4,14.4,"03:35:12",1
"20/11/07","03:50",0.0,13.2,95.3,1015.6,322.1,0.2,0.8,313.5,0.00,12.5,14.8,"03:40:24",1
"20/11/07","04:00",0.0,13.3,95.3,1015.4,318.1,0.1,0.6,296.0,0.00,12.6,14.7,"03:59:28",1
"20/11/07","04:10",0.0,13.4,95.3,1015.4,272.1,0.8,1.2,253.2,0.00,12.7,14.9,"04:08:40",1
"20/11/07","04:20",0.0,13.4,95.3,1015.2,282.6,0.8,1.0,294.1,0.00,12.7,14.7,"04:16:32",1
"20/11/07","04:30",0.0,13.5,95.3,1014.9,301.2,0.7,1.3,308.1,0.00,12.8,14.7,"04:21:44",1
"20/11/07","04:40",0.0,13.5,95.4,1015.4,322.8,0.6,1.3,338.2,0.00,12.8,14.7,"04:38:48",1
"20/11/07","04:50",0.0,13.6,95.3,1015.6,283.8,0.8,1.0,287.5,0.00,12.9,14.9,"04:46:40",1
"20/11/07","05:00",0.0,13.6,95.4,1015.6,269.0,1.0,1.3,250.7,0.00,12.9,14.7,"04:57:28",1
"20/11/07","05:10",0.0,13.6,95.4,1015.2,281.4,0.7,1.2,304.6,0.00,12.9,14.8,"05:00:56",1
"20/11/07","05:20",0.0,13.7,95.4,1015.2,307.8,1.0,1.6,322.4,0.00,13.0,14.8,"05:18:16",1
"20/11/07","05:30",0.0,13.7,95.4,1015.6,327.9,1.2,1.6,338.7,0.00,13.0,14.6,"05:20:32",1
"20/11/07","05:40",0.0,13.8,95.4,1015.6,288.8,0.8,1.3,312.1,0.00,13.1,14.6,"05:30:56",1
"20/11/07","05:50",0.0,13.8,95.4,1015.2,290.5,0.8,1.4,323.2,0.00,13.1,14.8,"05:49:44",1
"20/11/07","06:00",0.0,13.8,95.4,1015.4,309.9,1.5,1.9,322.5,0.00,13.1,15.0,"05:56:08",1
"20/11/07","06:10",0.0,13.8,95.4,1015.4,275.7,0.8,1.2,261.1,0.00,13.1,14.8,"06:04:40",1
"20/11/07","06:20",0.0,13.8,95.4,1015.4,307.8,0.7,1.3,320.4,0.00,13.1,14.9,"06:17:44",1
"20/11/07","06:30",0.0,13.9,95.5,1015.2,315.8,1.1,1.8,333.0,0.00,13.2,14.5,"06:25:52",1
"20/11/07","06:40",0.0,14.0,95.4,1014.9,276.1,0.8,1.1,279.2,0.00,13.3,14.9,"06:31:12",1
"20/11/07","06:50",0.0,14.0,95.4,1014.9,286.8,1.0,1.1,309.9,0.00,13.3,15.0,"06:40:40",1
"20/11/07","07:00",0.0,14.0,95.5,1014.9,295.2,1.0,1.3,312.3,0.00,13.3,14.8,"06:51:04",1
"20/11/07","07:10",0.0,14.1,95.5,1015.2,295.8,0.8,1.6,323.1,0.00,13.4,15.0,"07:05:56",1
"20/11/07","07:20",0.0,14.1,95.5,1015.2,307.3,0.6,1.2,322.4,0.00,13.4,15.0,"07:13:44",1
"20/11/07","07:30",0.0,14.2,95.4,1015.2,311.1,0.8,1.7,312.1,0.00,13.5,14.9,"07:26:08",1
"20/11/07","07:40",0.2,14.2,95.4,1015.4,281.2,0.7,1.0,289.2,0.00,13.5,14.9,"07:30:24",1
"20/11/07","07:50",0.0,14.2,95.4,1015.6,328.4,1.1,1.4,320.2,0.00,13.5,14.8,"07:40:32",1
"20/11/07","08:00",0.0,14.2,95.5,1015.4,303.3,1.0,1.4,315.4,0.00,13.5,14.9,"07:51:28",1
"20/11/07","08:10",0.0,14.3,95.5,1015.4,295.3,0.8,1.3,316.1,0.00,13.6,14.9,"08:07:44",1
"20/11/07","08:20",0.0,14.3,95.5,1015.2,292.1,0.8,1.3,319.6,0.00,13.6,15.2,"08:10:16",1
"20/11/07","08:30",0.0,14.3,95.5,1015.4,291.3,0.8,1.1,312.1,0.00,13.6,14.9,"08:25:44",1
"20/11/07","08:40",0.0,14.4,95.5,1015.4,270.6,0.6,0.9,260.3,0.00,13.7,15.2,"08:35:12",1
"20/11/07","08:50",0.2,14.4,95.5,1015.6,316.2,1.1,1.6,321.8,0.00,13.7,15.0,"08:49:12",1
"20/11/07","09:00",0.0,14.4,95.4,1015.4,318.6,0.8,1.2,317.6,0.00,13.7,15.0,"08:51:54",1
"20/11/07","09:10",0.0,14.3,95.5,1015.2,321.4,0.6,1.2,343.0,0.00,13.6,15.0,"09:01:56",1
"20/11/07","09:20",0.0,14.3,95.5,1015.2,317.0,0.5,1.0,341.6,0.01,13.6,15.2,"09:13:58",1
"20/11/07","09:30",0.0,14.4,95.6,1014.9,302.2,0.5,1.0,323.3,0.02,13.7,15.3,"09:27:30",1
"20/11/07","09:40",0.0,14.5,95.5,1014.9,325.0,0.7,1.6,352.4,0.02,13.8,15.1,"09:38:56",1
"20/11/07","09:50",0.0,14.4,95.5,1014.9,335.8,1.1,1.9,336.9,0.02,13.7,15.2,"09:48:16",1
"20/11/07","10:00",0.0,14.3,95.6,1014.7,322.2,1.0,1.6,333.0,0.02,13.6,15.2,"09:59:52",1
"20/11/07","10:10",0.0,14.4,95.6,1014.5,321.8,1.2,2.0,332.6,0.01,13.7,15.2,"10:08:18",1
"20/11/07","10:20",0.2,14.4,95.6,1014.5,315.7,1.3,1.9,323.6,0.02,13.7,15.4,"10:18:48",1
"20/11/07","10:30",0.0,14.4,95.6,1014.2,270.3,0.6,1.0,249.7,0.03,13.7,15.1,"10:22:32",1
"20/11/07","10:40",0.0,14.5,95.6,1013.8,333.1,0.3,0.9,74.8,0.04,13.8,15.2,"10:37:28",1
"20/11/07","10:50",0.0,14.6,95.6,1013.8,335.3,0.5,1.3,318.6,0.03,13.9,15.4,"10:47:44",1
"20/11/07","11:00",0.0,14.7,95.6,1013.5,303.3,0.5,1.0,294.5,0.02,14.0,15.2,"10:52:08",1
"20/11/07","11:10",0.0,14.8,95.6,1013.3,294.6,0.8,1.7,316.3,0.03,14.1,15.4,"11:03:52",1
"20/11/07","11:20",0.0,14.7,95.6,1013.0,314.1,1.3,2.0,327.1,0.04,14.0,15.3,"11:17:36",1
"20/11/07","11:30",0.0,14.9,95.6,1012.8,301.8,1.2,2.2,323.9,0.05,14.2,15.3,"11:28:56",1
"20/11/07","11:40",0.0,15.1,95.8,1013.0,307.6,1.3,2.1,332.4,0.08,14.5,15.6,"11:31:04",1
"20/11/07","11:50",0.0,15.4,95.5,1012.3,254.7,0.7,1.1,250.3,0.06,14.7,15.6,"11:47:50",1
"20/11/07","12:00",0.0,15.6,95.5,1012.3,199.0,0.3,0.9,264.8,0.07,14.9,15.4,"11:50:16",1
"20/11/07","12:10",0.0,15.7,95.5,1012.1,24.9,0.5,1.1,105.2,0.07,15.0,15.6,"12:05:52",1
"20/11/07","12:20",0.0,15.9,95.4,1011.9,342.6,0.6,1.4,312.7,0.06,15.2,15.4,"12:18:32",1
"20/11/07","12:30",0.0,16.1,95.3,1011.9,298.7,0.5,1.2,320.7,0.05,15.4,15.6,"12:22:32",1
"20/11/07","12:40",0.0,16.2,95.3,1011.9,314.8,0.2,0.8,251.3,0.07,15.5,15.8,"12:39:44",1
"20/11/07","12:50",0.0,16.4,95.2,1011.6,280.4,0.3,0.6,323.6,0.06,15.7,15.9,"12:42:08",1
"20/11/07","13:00",0.0,16.7,95.2,1011.2,288.7,0.5,1.2,333.4,0.10,16.0,16.0,"12:55:12",1
"20/11/07","13:10",0.0,16.7,94.9,1011.4,257.1,0.5,1.1,243.4,0.07,15.9,16.1,"13:03:52",1
"20/11/07","13:20",0.0,16.7,94.9,1011.2,250.4,0.2,0.8,105.4,0.03,15.9,15.9,"13:13:20",1
"20/11/07","13:30",0.0,16.7,94.9,1010.9,328.2,0.7,1.6,344.1,0.02,15.9,16.0,"13:28:40",1
"20/11/07","13:40",0.0,16.7,94.9,1010.7,315.5,0.7,1.1,321.2,0.03,15.9,16.0,"13:30:08",1
"20/11/07","13:50",0.0,16.8,94.9,1010.7,279.5,0.6,1.0,295.8,0.05,16.0,15.9,"13:40:08",1
"20/11/07","14:00",0.0,16.9,94.9,1010.7,313.5,0.6,1.1,334.7,0.05,16.1,16.2,"13:56:24",1
"20/11/07","14:10",0.0,17.0,94.8,1010.4,279.2,0.5,1.0,316.5,0.03,16.2,16.2,"14:00:08",1
"20/11/07","14:20",0.0,16.9,94.8,1010.4,294.3,0.5,1.0,334.5,0.02,16.1,16.2,"14:16:32",1
"20/11/07","14:30",0.0,16.9,94.7,1010.0,317.4,0.5,1.0,340.4,0.01,16.1,16.2,"14:29:44",1
"20/11/07","14:40",0.0,16.8,94.7,1010.0,332.9,0.7,1.6,336.6,0.00,16.0,16.2,"14:37:04",1
"20/11/07","14:50",0.0,16.7,94.6,1010.2,322.3,0.7,1.2,335.0,0.00,15.9,16.2,"14:46:48",1
"20/11/07","15:00",0.0,16.7,94.7,1010.0,273.5,0.5,1.1,240.7,0.00,15.9,16.2,"14:52:56",1
"20/11/07","15:10",0.0,16.7,94.6,1010.0,297.0,0.6,1.0,323.6,0.00,15.9,16.1,"15:03:52",1
"20/11/07","15:20",0.0,16.7,94.6,1010.2,304.5,0.5,0.9,322.8,0.00,15.9,16.0,"15:19:04",1
"20/11/07","15:30",0.2,16.8,94.6,1010.0,341.5,0.5,1.3,4.9,0.00,16.0,16.2,"15:20:02",1
"20/11/07","15:40",0.0,16.8,94.5,1010.2,339.2,0.7,1.0,337.7,0.00,16.0,16.2,"15:30:40",1
"20/11/07","15:50",0.0,16.7,94.5,1010.0,318.5,0.5,0.9,317.4,0.00,15.9,16.0,"15:48:48",1
"20/11/07","16:00",0.0,16.7,94.5,1010.0,324.1,0.7,1.1,330.5,0.00,15.9,16.2,"15:53:12",1
"20/11/07","16:10",0.0,16.6,94.5,1010.0,314.0,0.8,1.4,325.2,0.00,15.8,16.2,"16:02:32",1
"20/11/07","16:20",0.0,16.6,94.5,1010.2,305.6,0.8,1.6,324.7,0.00,15.8,16.4,"16:12:00",1
"20/11/07","16:30",0.0,16.5,94.5,1009.7,287.2,0.7,1.1,308.2,0.00,15.7,16.2,"16:27:36",1
"20/11/07","16:40",0.2,16.4,94.5,1010.0,288.6,0.6,1.0,304.5,0.00,15.6,16.1,"16:36:08",1
"20/11/07","16:50",0.2,16.3,94.6,1009.7,275.5,0.5,0.6,267.3,0.00,15.5,16.2,"16:44:08",1
"20/11/07","17:00",0.0,16.2,94.5,1009.7,293.4,0.5,0.9,312.8,0.00,15.4,16.0,"16:53:44",1
"20/11/07","17:10",0.0,16.2,94.6,1009.5,290.4,0.1,0.5,329.9,0.00,15.4,16.1,"17:07:36",1
"20/11/07","17:20",0.2,16.2,94.7,1009.5,300.2,0.3,0.8,293.8,0.00,15.4,16.1,"17:14:08",1
"20/11/07","17:30",0.2,16.1,94.6,1009.7,290.1,0.3,0.5,273.3,0.00,15.3,15.9,"17:20:40",1
"20/11/07","17:40",0.0,16.1,94.6,1009.7,329.4,0.7,1.1,324.3,0.00,15.3,16.2,"17:35:12",1
"20/11/07","17:50",0.0,16.1,94.6,1010.0,19.9,0.6,1.0,345.3,0.00,15.3,16.1,"17:40:02",1
"20/11/07","18:00",0.2,16.1,94.7,1009.7,12.5,0.6,1.1,344.4,0.00,15.3,16.2,"17:51:28",1
"20/11/07","18:10",0.0,16.0,94.7,1009.7,323.5,0.6,1.2,335.3,0.00,15.2,16.0,"18:00:48",1
"20/11/07","18:20",0.4,15.9,94.8,1010.0,261.4,0.6,1.0,256.2,0.00,15.1,16.2,"18:13:12",1
"20/11/07","18:30",0.4,15.9,94.8,1010.2,302.8,0.6,1.2,317.1,0.00,15.1,16.2,"18:24:48",1
"20/11/07","18:40",0.6,16.0,94.9,1010.0,183.4,0.5,1.1,219.0,0.00,15.2,16.1,"18:36:40",1
"20/11/07","18:50",0.4,15.9,94.9,1010.2,228.9,0.3,0.8,237.6,0.00,15.1,16.0,"18:44:20",1
"20/11/07","19:00",1.2,15.8,95.0,1010.2,244.9,0.6,1.2,247.1,0.00,15.0,16.2,"18:57:50",1
"20/11/07","19:10",3.0,15.8,95.1,1010.2,274.0,0.5,0.9,316.8,0.00,15.1,15.9,"19:03:08",1
"20/11/07","19:20",1.6,15.8,95.1,1010.2,316.3,0.3,0.6,284.0,0.00,15.1,15.9,"19:13:12",1
"20/11/07","19:30",0.6,15.7,95.1,1010.4,308.7,0.5,1.1,316.5,0.00,15.0,16.0,"19:26:48",1
"20/11/07","19:40",0.8,15.7,95.1,1010.4,288.3,0.5,1.0,316.1,0.00,15.0,16.0,"19:38:48",1
"20/11/07","19:50",0.4,15.7,95.1,1010.2,303.4,0.8,1.4,321.0,0.00,15.0,16.1,"19:48:06",1
"20/11/07","20:00",0.2,15.8,95.2,1010.2,324.3,0.8,1.3,326.9,0.00,15.1,16.1,"19:50:48",1
"20/11/07","20:10",0.0,15.7,95.2,1010.4,313.8,0.8,1.3,317.6,0.00,15.0,15.8,"20:06:26",1
"20/11/07","20:20",0.0,15.7,95.3,1010.2,311.7,0.8,1.3,309.9,0.00,15.0,15.9,"20:14:08",1
"20/11/07","20:30",0.0,15.7,95.4,1010.7,276.5,0.7,1.1,248.9,0.00,15.0,16.0,"20:28:54",1
"20/11/07","20:40",0.2,15.7,95.3,1010.4,278.9,0.3,0.9,256.9,0.00,15.0,15.9,"20:31:20",1
"20/11/07","20:50",0.0,15.7,95.4,1010.4,245.0,0.2,0.8,238.8,0.00,15.0,16.0,"20:40:16",1
"20/11/07","21:00",0.2,15.7,95.4,1010.7,276.2,0.8,1.4,327.2,0.00,15.0,16.0,"20:59:28",1
"20/11/07","21:10",0.0,15.6,95.4,1010.4,281.1,0.5,1.4,324.4,0.00,14.9,16.1,"21:00:48",1
"20/11/07","21:20",0.0,15.6,95.4,1010.7,278.2,0.3,0.8,282.9,0.00,14.9,16.3,"21:11:28",1
"20/11/07","21:30",0.0,15.7,95.6,1010.7,272.3,0.5,1.0,242.5,0.00,15.0,15.8,"21:29:12",1
"20/11/07","21:40",0.0,15.7,95.7,1010.9,264.7,0.5,1.1,240.6,0.00,15.1,15.9,"21:39:44",1
"20/11/07","21:50",0.0,15.7,95.7,1010.9,243.2,0.6,1.1,237.3,0.00,15.1,16.0,"21:40:40",1
"20/11/07","22:00",0.0,15.6,95.7,1011.2,281.8,0.6,1.2,290.2,0.00,15.0,16.0,"21:52:24",1
"20/11/07","22:10",0.0,15.7,95.7,1010.9,321.2,1.1,1.6,321.0,0.00,15.1,16.1,"22:00:48",1
"20/11/07","22:20",0.0,15.7,95.7,1010.9,326.9,1.1,1.8,329.8,0.00,15.1,16.0,"22:12:56",1
"20/11/07","22:30",0.0,15.6,95.8,1010.4,301.7,0.8,1.2,321.4,0.00,15.0,16.1,"22:20:32",1
"20/11/07","22:40",0.0,15.7,95.9,1010.9,303.2,0.7,1.1,330.8,0.00,15.1,15.9,"22:39:44",1
"20/11/07","22:50",0.2,15.7,95.9,1010.7,274.6,0.7,1.6,324.0,0.00,15.1,16.0,"22:41:28",1
"20/11/07","23:00",0.0,15.7,95.9,1010.9,230.9,0.2,0.6,286.1,0.00,15.1,16.0,"22:54:40",1
"20/11/07","23:10",0.0,15.6,95.9,1010.9,276.5,0.3,0.6,281.0,0.00,15.0,15.9,"23:00:48",1
"20/11/07","23:20",0.0,15.6,96.0,1011.2,282.5,0.6,0.8,301.9,0.00,15.0,16.0,"23:12:32",1
"20/11/07","23:30",0.0,15.7,96.0,1010.7,314.3,1.2,1.8,312.4,0.00,15.1,15.9,"23:27:28",1
"20/11/07","23:40",0.0,15.7,96.0,1010.9,305.0,1.1,1.8,310.2,0.00,15.1,16.1,"23:38:08",1
"20/11/07","23:50",0.0,15.7,96.1,1010.9,306.2,1.1,2.0,327.4,0.00,15.1,15.9,"23:42:16",1
"20/11/07","24:00",0.0,15.6,96.1,1010.2,306.6,0.8,1.4,322.9,0.00,15.0,16.1,"23:54:00",1
